Location: Bernay
(48.6766°N, 2.9386°E)
Time: 17:56:13
(UTC+00:00)

USA 215 - Pass Details

Date: 12 January 2026
Orbit: 1098 x 1109 km, 123.0° (Epoch: 10 January)

Event Time Altitude Azimuth Distance (km) Brightness Sun altitude
Exits shadow 19:58:06 59° 305° (NW) 1,263 3.6 -35.9°
Drops below altitude 10° 20:03:47 10° 258° (WSW) 2,958 6.2 -36.8°
Sets 20:06:17 0° 255° (WSW) 3,913 7.0 -37.2°
